Regional Weather Roundup
Issued by NWS

Home | Current Version | Previous Version | Graphics & Text | Print | Product List | Glossary Off
Versions: 1 2 3 4 5 6 7 8 9 10 11 12 13 14 15 16 17 18 19 20 21 22 23 24 25 26 27 28 29 30 31 32 33 34 35 36 37 38 39 40 41 42 43 44 45 46 47 48 49 50

000
ASUS43 KMPX 190710
RWRMN
WEATHER ROUNDUP FOR MINNESOTA
NATIONAL WEATHER SERVICE TWIN CITIES/CHANHASSEN MN
100 AM CST FRI DEC 19 2014


NOTE: "FAIR" INDICATES FEW OR NO CLOUDS BELOW 12,000 FEET WITH NO
SIGNIFICANT WEATHER AND/OR OBSTRUCTIONS TO VISIBILITY. N/A MEANS
CURRENT SKY AND/OR WEATHER CONDITIONS ARE NOT AVAILABLE.

MNZ060>063-068>070-190800-
   Twin Cities Metro

CITY           SKY/WX    TMP DP  RH WIND       PRES   REMARKS
TWIN CITIES    CLOUDY    20  15  81 SE5       30.28S WCI  13
ST PAUL        CLOUDY    21  16  81 S6        30.30S WCI  13
CRYSTAL        CLOUDY    22  15  75 S7        30.26S WCI  13
BLAINE         CLOUDY    23  19  86 S6        30.27R WCI  16
LAKEVILLE      CLOUDY    19  16  86 SE5       30.27S WCI  13
EDEN PRAIRIE   CLOUDY    21  15  78 SE6       30.26S WCI  13
SOUTH ST PAUL  CLOUDY    22  17  80 S3        30.28S
LAKE ELMO      CLOUDY    23  19  86 S7        30.28S WCI  15
$$
MNZ001>005-007-008-013>017-022>024-027-028-190800-
   Northwest Minnesota

CITY           SKY/WX    TMP DP  RH WIND       PRES   REMARKS
BEMIDJI        CLOUDY    18  15  87 S8        30.17S WCI   8
HALLOCK        CLOUDY    21  18  86 S12       30.13S WCI   9
ROSEAU         CLOUDY    19  14  79 S8        30.16S WCI   9
WARROAD        CLOUDY    19  16  86 S8        30.17S WCI   9
THIEF RVR FALL CLOUDY    19  19 100 S10       30.15S WCI   8
CROOKSTON      PTCLDY    21  19  93 S9        30.16F WCI  11
FOSSTON        CLOUDY    18  16  93 SE7       30.16S WCI   8
DETROIT LAKES  FLURRIES  21  19  93 SE9       30.16F WCI  11
MOORHEAD       CLOUDY    21  21 100 S14       30.16F WCI   8
PARK RAPIDS    CLOUDY    19  15  84 S9        30.17F WCI   8
MAHNOMEN       FLURRIES  20  16  84 SE8       30.15F WCI  10
$$
MNZ006-009>011-018-025>026-190800-
   North Central Minnesota

CITY           SKY/WX    TMP DP  RH WIND       PRES   REMARKS
BAUDETTE       CLOUDY    19  14  81 S6        30.17F WCI  11
FLAG ISLAND    CLOUDY    18  16  93 S13       30.16F WCI   4
INTL FALLS     CLOUDY    21  17  84 S5        30.19F WCI  15
WASKISH        CLOUDY    19  18  93 CALM      30.18S
BIG FORK       CLOUDY    21  18  86 S7        30.19F WCI  13
LONGVILLE      CLOUDY    18  16  93 S6        30.20F WCI   9
GRAND RAPIDS   CLOUDY    19  16  86 S7        30.20R WCI  10
CRANE LAKE     CLOUDY    21  19  93 SE6       30.22F WCI  14
ORR            CLOUDY    21  18  86 S8        30.17S WCI  12
COOK           CLOUDY    21  19  93 SE3       30.20S
WALKER         CLOUDY    18  15  87 S5        30.19S WCI  11
$$
MNZ012-019>021-037-190800-
   Northeast Minnesota

CITY           SKY/WX    TMP DP  RH WIND       PRES   REMARKS
DULUTH         FLURRIES  21  18  88 S9        30.21S WCI  11
ELY            CLOUDY    21  19  93 SE5       30.20F WCI  15
HIBBING        CLOUDY    23  17  78 S3        30.20S
EVELETH        CLOUDY    23  19  86 S3        30.21S
DULUTH HARBOR  CLOUDY    25  21  86 CALM      30.28S
TWO HARBORS    CLOUDY    27  19  74 SE5       30.22S WCI  21
SILVER BAY     CLOUDY    25  19  80 CALM      30.22F
GRAND MARAIS     N/A     22  15  75 N3        30.28S
G MARAIS ARPRT CLOUDY     7   3  85 N5        30.20S WCI  -2
$$
MNZ029>031-032-039>041-046>048-054>057-064-190800-
   West Central Minnesota

CITY           SKY/WX    TMP DP  RH WIND       PRES   REMARKS
FERGUS FALLS   LGT SNOW  19  16  86 SE12      30.20F WCI   7
WHEATON        MIX PCPN  19  18  93 SE12      30.19F WCI   7
MORRIS         PTCLDY    21  19  93 SE12      30.18F FOG     WCI   9
ALEXANDRIA     CLOUDY    20  16  84 SE8       30.19S WCI  10
ELBOW LAKE     CLOUDY    20  18  91 SE12      30.17F WCI   8
WADENA         CLOUDY    18  16  93 NW6       30.18F WCI   9
GLENWOOD       MOCLDY    19  18  93 SE8       30.20S WCI   9
APPLETON       CLOUDY    25  21  86 SE5       30.20S WCI  19
BENSON         CLOUDY    21  19  93 S8        30.20F WCI  12
ORTONVILLE     CLOUDY    23  19  86 SE7       30.18S FOG     WCI  15
MADISON        PTCLDY    27  25  93 SE5       30.20S WCI  21
WILLMAR        CLOUDY    23  19  86 SE9       30.22F WCI  13
$$
MNZ033>034-036-042>043-049>051-058-059-190800-
   Central Minnesota

CITY           SKY/WX    TMP DP  RH WIND       PRES   REMARKS
ST CLOUD       CLOUDY    22  15  75 S7        30.24F WCI  13
SAUK CENTRE    CLOUDY    19  16  88 SE6       30.21S WCI  11
PAYNESVILLE    CLOUDY    18  16  91 E8        30.22F WCI   8
AITKIN         CLOUDY    21  16  79 CALM      30.21S
PINE RIVER     CLOUDY    18  16  93 SE5       30.23S WCI  11
BRAINERD       CLOUDY    19  15  84 S6        30.22F WCI  11
STAPLES        CLOUDY    18  16  93 S7        30.20S WCI   8
LONG PRAIRIE   CLOUDY    19  16  86 SE7       30.21S WCI  10
LITTLE FALLS   CLOUDY    21  16  79 SE6       30.23S WCI  14
LITCHFIELD     CLOUDY    21  19  93 SE7       30.23F WCI  13
BUFFALO        CLOUDY    21  16  81 SE6       30.27F WCI  13
MAPLE LAKE     CLOUDY    22  19  87 SE5       30.25F WCI  15
$$
MNZ037-044-045-052-053-190800-
   East Central Minnesota

CITY           SKY/WX    TMP DP  RH WIND       PRES   REMARKS
PRINCETON      CLOUDY    21  18  86 CALM      30.25S
MORA           CLOUDY    19  16  86 S7        30.26F WCI  10
CAMBRIDGE      CLOUDY    23  16  74 S5        30.25S WCI  17
RUSH CITY      CLOUDY    22  18  87 S3        30.26F
MOOSE LAKE     CLOUDY    21  19  93 SW5       30.22F WCI  15
HINCKLEY       CLOUDY    23  19  86 CALM      30.25S
CLOQUET        CLOUDY    19  18  93 S8        30.22S WCI   9
MCGREGOR       CLOUDY    21  19  93 S7        30.23F WCI  13
$$
MNZ071>073-080-081-089-090-097-098-190800-
   Southwest Minnesota

CITY           SKY/WX    TMP DP  RH WIND       PRES   REMARKS
MONTEVIDEO     CLOUDY    23  21  93 S5        30.22S WCI  17
GRANITE FALLS  CLOUDY    24  21  89 SE7       30.22F WCI  16
CANBY          CLOUDY    25  24  96 SE5       30.19F WCI  20
MARSHALL       CLOUDY    27  21  80 SE3       30.19S
REDWOOD FALLS  CLOUDY    24  20  84 SE9       30.22F WCI  14
OLIVIA         CLOUDY    25  21  86 SE8       30.21F WCI  16
PIPESTONE      CLOUDY    27  25  93 S3        30.16S FOG
WINDOM         CLOUDY    25  23  93 CALM      30.20S
WORTHINGTON    CLOUDY    27  25  93 S6        30.19F WCI  20
JACKSON        CLOUDY    27  23  86 S5        30.20F WCI  21
TRACY          CLOUDY    27  25  92 S5        30.19F WCI  22
SLAYTON        CLOUDY    26  26 100 S3        30.18F FOG
$$
MNZ065>067-074>077-082>085-091>093-190800-
   South Central Minnesota

CITY           SKY/WX    TMP DP  RH WIND       PRES   REMARKS
MANKATO        CLOUDY    23  18  80 SE7       30.25S WCI  15
NEW ULM        CLOUDY    23  21  93 SE3       30.24S
ST JAMES       CLOUDY    27  21  80 SE6       30.24F WCI  20
FAIRMONT       CLOUDY    25  19  80 S8        30.22F WCI  16
GLENCOE        CLOUDY    23  20  90 E6        30.25S WCI  15
FARIBAULT      CLOUDY    21  18  86 SE3       30.26S
OWATONNA       CLOUDY    21  18  86 SE5       30.25S WCI  15
WASECA         CLOUDY    23  19  86 SE5       30.26F WCI  17
ALBERT LEA     CLOUDY    25  21  86 S5        30.24F WCI  19
$$
MNZ078>079-086>088-094>096-190800-
   Southeast Minnesota

CITY           SKY/WX    TMP DP  RH WIND       PRES   REMARKS
ROCHESTER      CLOUDY    20  17  88 SE3       30.25F
RED WING       CLOUDY    23  18  80 S3        30.28S
STANTON        CLOUDY    23  17  78 S3        30.26S
DODGE CENTER   CLOUDY    21  19  93 S5        30.25R WCI  15
WINONA         CLOUDY    27  21  80 W3        30.30S
AUSTIN         CLOUDY    21  19  93 S5        30.25S WCI  15
PRESTON        CLOUDY    21  17  83 CALM      30.26S
$$
ABBREVIATIONS USED IN REMARKS
   TC - TEMPERATURES IN CELSIUS
  WCI - WIND CHILL INDEX
   HX - HEAT INDEX
  VSB - VISIBILITY
$$


USA.gov is the U.S. government's official web portal to all federal, state and local government web resources and services.